Location: Juzet
(42.9779°N, 0.7597°E)
Time: 19:04:19
(UTC+00:00)

Cosmos 2360 - Pass Details

Date: 14 July 2020
Orbit: 844 x 858 km, 70.8° (Epoch: 11 August)

Event Time Altitude Azimuth Distance (km) Brightness Sun altitude
Rises 02:35:27 0° 333° (NNW) 3,440 7.7 -16.5°
Reaches altitude 10° 02:37:55 10° 331° (NNW) 2,500 7.0 -16.2°
Maximum altitude 02:43:39 72° 249° (WSW) 904 4.2 -15.6°
Drops below altitude 10° 02:49:20 10° 166° (SSE) 2,483 6.3 -14.9°
Enters shadow 02:51:27 - 164° (SSE) 3,288 6.9 -14.7°
